Date,TemperatureHighF,TemperatureAvgF,TemperatureLowF,DewpointHighF,DewpointAvgF,DewpointLowF,HumidityHigh,HumidityAvg,HumidityLow,PressureMaxIn,PressureMinIn,WindSpeedMaxMPH,WindSpeedAvgMPH,GustSpeedMaxMPH,PrecipitationSumIn
2013-1-1,55.3,48.6,42.0,54.0,45.4,38.0,95,89,80,31.07,30.77,14,5,0,0.03
2013-1-2,42.4,40.3,37.9,37.0,34.5,33.0,84,80,73,31.19,31.06,11,3,0,0.00
2013-1-3,49.6,40.7,29.1,39.0,33.4,26.0,91,77,53,31.31,31.18,11,2,0,0.01
2013-1-4,45.8,44.0,41.5,40.0,37.3,35.0,84,77,68,31.38,31.23,7,2,0,0.00
2013-1-5,45.0,42.7,32.5,43.0,40.0,31.0,92,90,85,31.25,31.11,3,0,0,0.14
2013-1-6,53.9,41.0,32.4,47.0,38.1,30.0,94,90,66,31.25,31.14,9,2,0,0.01
2013-1-7,56.8,43.2,28.4,44.0,36.9,27.0,94,80,57,31.19,30.95,9,1,0,0.00
2013-1-8,61.7,55.9,49.9,60.0,52.8,43.0,95,89,76,30.94,30.64,14,3,0,0.07
2013-1-9,65.1,63.2,61.4,64.0,61.7,60.0,95,95,94,30.82,30.67,13,3,0,2.35
2013-1-10,65.8,58.6,51.8,60.0,51.8,47.0,95,80,52,30.89,30.78,9,3,0,0.01
2013-1-11,73.5,60.5,45.2,64.0,55.3,42.0,94,83,68,30.85,30.66,17,4,0,0.00
2013-1-12,74.4,69.8,48.4,70.0,66.9,46.0,95,90,78,30.66,30.44,17,8,0,0.02
2013-1-13,50.4,43.1,38.5,45.0,37.2,33.0,93,80,64,31.01,30.62,18,6,0,0.10
2013-1-14,45.6,40.2,35.3,37.0,34.0,30.0,84,78,72,31.10,30.97,12,4,0,0.00
2013-1-15,40.4,35.9,34.0,35.0,33.3,32.0,93,90,81,31.07,30.92,10,4,0,0.06
2013-1-16,48.5,38.5,28.3,33.0,27.7,23.0,88,68,39,31.19,31.05,11,2,0,0.00
2013-1-17,62.0,41.9,26.4,39.0,31.9,24.0,92,71,41,31.35,31.14,9,1,0,0.00
2013-1-18,63.4,48.2,33.3,41.0,36.4,30.0,90,66,40,31.38,31.20,9,2,0,0.00
2013-1-19,66.9,51.1,39.9,49.0,42.8,33.0,92,75,47,31.20,31.01,9,2,0,0.00
2013-1-20,69.0,55.3,41.5,55.0,48.4,40.0,94,79,52,31.09,30.93,10,1,0,0.00
2013-1-21,71.8,55.2,41.9,57.0,48.7,40.0,94,80,52,31.08,30.97,6,1,0,0.00
2013-1-22,71.2,55.1,40.1,54.0,47.3,38.0,93,77,55,31.15,31.03,10,2,0,0.00
2013-1-23,64.8,53.7,51.0,59.0,51.5,49.0,94,92,80,31.16,31.10,6,2,0,0.00
2013-1-25,64.4,63.7,63.3,61.0,61.0,61.0,91,90,88,30.93,30.91,5,2,0,0.00
2013-1-26,76.5,65.5,56.5,65.0,58.9,54.0,94,80,56,31.00,30.87,11,2,0,0.00
2013-1-27,77.5,67.9,59.9,67.0,63.1,57.0,93,85,67,30.93,30.80,14,6,0,0.00
2013-1-28,81.5,72.5,68.7,68.0,65.3,57.0,90,79,44,30.88,30.71,19,9,0,0.00
2013-1-29,77.3,70.4,56.1,69.0,65.8,53.0,92,85,74,30.70,30.32,23,6,0,0.11
2013-1-30,56.6,50.3,34.6,54.0,34.5,28.0,90,57,36,31.06,30.55,0,0,0,0.00
2013-1-31,66.1,49.0,33.2,36.0,30.6,26.0,83,54,22,31.16,31.03,0,0,0,0.00
2013-2-1,70.1,55.6,39.2,47.0,40.5,36.0,89,60,35,31.19,31.04,0,0,0,0.00
2013-2-2,74.8,60.1,49.8,56.0,50.3,43.0,89,72,45,31.09,30.98,0,0,0,0.00
2013-2-3,70.7,56.7,38.7,48.0,37.0,30.0,91,53,22,31.16,30.88,6,1,0,0.00
2013-2-4,71.2,61.5,53.5,63.0,55.1,38.0,94,80,50,30.87,30.61,9,1,0,0.00
2013-2-5,78.1,67.9,61.2,66.0,63.1,58.0,94,85,65,30.77,30.66,5,1,0,0.00
2013-2-6,67.1,64.2,59.2,64.0,61.4,56.0,95,90,84,30.81,30.65,6,1,0,0.38
2013-2-7,68.2,61.4,54.7,62.0,58.1,53.0,93,89,80,30.83,30.68,8,1,0,0.00
2013-2-8,66.7,57.2,50.2,56.0,49.2,46.0,91,76,52,31.02,30.83,9,3,0,0.00
2013-2-9,67.8,58.7,49.2,65.0,54.7,47.0,91,86,79,30.94,30.63,11,4,0,0.00
2013-2-10,70.2,63.6,56.1,68.0,54.9,41.0,93,75,42,30.81,30.55,14,4,0,0.18
2013-2-11,57.0,53.2,49.7,51.0,48.6,45.0,91,85,65,30.91,30.76,12,2,0,0.52
2013-2-12,60.4,54.9,51.4,56.0,51.8,46.0,94,89,79,30.82,30.63,9,2,0,0.04
2013-2-13,57.2,47.8,38.0,46.0,39.5,35.0,88,74,56,30.98,30.82,14,3,0,0.00
2013-2-14,66.5,49.3,32.0,45.0,36.5,30.0,93,66,31,31.00,30.88,6,0,0,0.00
2013-2-15,60.8,49.6,37.7,45.0,39.2,33.0,92,69,48,31.20,30.93,13,3,0,0.01
2013-2-16,60.6,45.4,29.8,36.0,31.4,26.0,89,61,34,31.29,31.09,6,1,0,0.00
2013-2-17,70.6,55.7,41.2,50.0,41.9,33.0,88,63,33,31.09,30.84,24,7,0,0.00
2013-2-18,74.6,65.0,56.7,66.0,56.6,40.0,90,75,44,30.89,30.61,19,6,0,0.64
2013-2-19,66.1,55.9,42.0,41.0,37.1,32.0,81,51,29,31.08,30.90,9,2,0,0.00
2013-2-20,60.8,55.0,50.9,56.0,43.5,32.0,90,67,45,30.95,30.56,15,5,0,0.01
2013-2-21,74.8,64.5,49.1,70.0,55.3,43.0,94,75,35,30.66,30.44,21,5,0,0.04
2013-2-22,59.8,52.9,48.2,47.0,43.0,37.0,81,70,55,30.84,30.64,12,3,0,0.00
2013-2-23,66.6,51.4,39.7,46.0,39.6,34.0,80,65,45,30.86,30.72,9,2,0,0.00
2013-2-24,71.8,58.5,41.5,53.0,46.7,36.0,87,66,44,30.78,30.44,10,3,0,0.00
2013-2-25,70.6,59.8,46.7,61.0,43.8,28.0,94,61,22,30.58,30.33,16,4,0,0.03
2013-2-26,62.4,49.9,40.5,40.0,35.9,32.0,75,60,37,30.75,30.58,14,2,0,0.00
2013-2-27,62.2,52.1,36.7,47.0,35.9,30.0,83,56,32,31.02,30.73,15,3,0,0.00
2013-2-28,57.7,45.2,35.7,35.0,30.7,28.0,80,59,37,31.16,31.01,10,2,0,0.00
2013-3-1,62.1,43.1,29.2,36.0,30.8,26.0,89,66,32,31.16,31.01,6,1,0,0.00
2013-3-2,54.0,42.1,33.5,32.0,28.1,23.0,84,61,31,31.24,31.11,16,3,0,0.00
2013-3-3,69.3,51.0,31.1,48.0,35.2,26.0,82,59,30,31.13,30.80,18,6,0,0.00
2013-3-4,80.1,65.4,53.5,61.0,56.1,48.0,90,74,47,30.79,30.52,25,12,0,0.00
2013-3-5,65.0,57.0,36.5,61.0,38.6,25.0,88,54,28,31.17,30.56,19,7,0,0.00
2013-3-6,65.0,44.5,28.2,33.0,27.6,23.0,83,57,22,31.28,31.08,11,1,0,0.00
2013-3-7,71.9,55.5,38.5,49.0,43.0,34.0,91,66,36,31.11,30.96,12,2,0,0.00
2013-3-8,71.0,60.9,53.0,61.0,54.8,48.0,90,81,67,31.01,30.86,11,4,0,0.00
2013-3-9,77.4,67.7,60.0,66.0,61.5,57.0,91,81,65,30.86,30.52,18,7,0,0.00
2013-3-10,68.0,59.7,49.0,64.0,49.8,37.0,94,72,46,30.90,30.45,13,4,0,0.68
2013-3-11,59.3,49.2,37.1,38.0,32.0,24.0,86,55,27,30.97,30.84,11,2,0,0.00
2013-3-12,72.2,54.2,35.8,43.0,34.3,26.0,85,51,28,31.09,30.90,5,1,0,0.00
2013-3-13,71.5,56.0,38.7,44.0,40.1,36.0,91,59,32,31.28,31.09,12,1,0,0.00
2013-3-14,75.3,59.4,42.0,52.0,46.8,39.0,92,66,40,31.23,31.05,13,4,0,0.00
2013-3-15,78.8,62.8,49.2,59.0,51.9,46.0,91,70,41,31.08,30.84,16,6,0,0.00
2013-3-16,80.9,67.0,56.4,62.0,58.4,55.0,93,76,44,30.83,30.58,21,9,0,0.00
2013-3-17,82.0,70.1,62.7,65.0,62.4,60.0,92,78,54,30.64,30.44,15,7,0,0.00
2013-3-18,86.8,73.7,63.3,68.0,63.1,52.0,93,72,48,30.70,30.50,12,4,0,0.00
2013-3-19,81.0,68.5,57.6,62.0,55.1,47.0,81,63,48,30.78,30.64,9,2,0,0.00
2013-3-20,71.2,60.1,53.1,54.0,48.7,39.0,93,70,32,31.03,30.75,10,2,0,0.34
2013-3-21,71.5,62.1,52.1,61.0,51.3,39.0,87,69,53,30.85,30.45,21,5,0,0.00
2013-3-22,81.6,71.6,62.2,70.0,64.9,55.0,94,80,64,30.54,30.42,13,4,0,0.00
2013-3-23,68.6,61.0,55.7,62.0,55.8,52.0,88,83,76,30.54,30.39,8,2,0,0.00
2013-3-24,61.6,51.8,39.5,58.0,38.2,30.0,92,62,38,30.99,30.46,15,5,0,0.00
2013-3-25,58.0,44.4,33.1,31.0,27.5,24.0,86,56,27,31.26,30.99,11,2,0,0.00
2013-3-26,60.1,47.0,29.0,31.0,27.6,22.0,80,50,29,31.35,31.17,11,1,0,0.00
2013-3-27,71.6,54.8,34.6,47.0,37.8,25.0,84,55,34,31.21,31.00,13,3,0,0.00
2013-3-28,72.3,62.9,53.2,59.0,54.2,46.0,83,74,62,31.05,30.95,15,3,0,0.00
2013-3-29,76.8,66.9,56.8,62.0,58.8,54.0,93,76,58,31.02,30.89,14,3,0,0.00
2013-3-30,81.0,69.9,62.4,64.0,61.8,60.0,93,77,53,30.92,30.70,16,4,0,0.00
2013-3-31,82.1,71.2,62.3,69.0,65.3,60.0,91,82,59,30.75,30.61,12,4,0,0.01
2013-4-1,81.0,69.6,62.0,67.0,63.6,59.0,93,82,62,30.85,30.71,6,1,0,0.00
2013-4-2,72.0,65.1,60.5,65.0,61.5,58.0,93,88,77,30.81,30.64,8,2,0,1.13
2013-4-3,60.6,55.6,49.8,59.0,53.2,48.0,94,91,86,30.92,30.56,12,3,0,0.14
2013-4-4,52.5,49.4,47.5,48.0,45.0,42.0,93,85,76,31.04,30.88,10,2,0,0.00
2013-4-5,70.1,55.3,39.3,53.0,46.6,37.0,93,74,51,31.11,30.91,6,1,0,0.00
2013-4-6,75.1,63.2,49.9,61.0,55.4,47.0,92,77,60,30.91,30.71,19,5,0,0.00
2013-4-7,79.3,69.1,60.3,64.0,61.0,57.0,90,76,58,30.77,30.59,18,5,0,0.00
2013-4-8,80.7,72.0,66.3,68.0,65.0,62.0,91,79,59,30.65,30.49,17,4,0,0.00
2013-4-9,83.7,75.3,67.4,71.0,68.1,64.0,90,79,61,30.54,30.41,16,5,0,0.00
2013-4-10,75.1,61.1,45.8,71.0,57.8,42.0,92,88,81,30.70,30.45,19,3,0,0.11
2013-4-11,66.1,53.5,43.8,45.0,40.8,35.0,86,64,42,30.77,30.62,12,3,0,0.00
2013-4-12,78.5,59.7,40.7,52.0,45.8,38.0,94,65,31,30.84,30.68,12,1,0,0.00
2013-4-13,77.3,63.5,47.4,59.0,52.3,44.0,93,69,44,30.78,30.60,8,1,0,0.00
2013-4-14,81.1,67.4,51.2,69.0,61.5,49.0,94,82,65,30.61,30.41,14,4,0,0.00
2013-4-15,83.1,74.1,68.2,72.0,68.3,66.0,92,82,65,30.61,30.49,15,6,0,0.00
2013-4-16,87.3,76.7,69.8,73.0,69.9,67.0,91,80,59,30.70,30.58,11,5,0,0.00
2013-4-17,81.4,75.5,72.9,73.0,71.2,70.0,93,86,73,30.68,30.49,13,5,0,0.00
2013-4-18,72.9,61.7,50.3,70.0,57.6,43.0,94,86,71,30.89,30.44,11,5,0,0.33
2013-4-19,63.9,52.1,41.6,42.0,36.4,29.0,84,59,28,31.10,30.88,13,3,0,0.00
2013-4-20,70.1,54.9,34.7,44.0,38.9,32.0,90,59,34,31.08,30.88,12,3,0,0.00
2013-4-21,73.5,62.3,48.0,57.0,51.4,43.0,87,69,53,30.99,30.85,10,2,0,0.00
2013-4-22,80.9,66.8,49.4,63.0,57.1,47.0,94,73,51,30.93,30.69,12,3,0,0.00
2013-4-23,79.7,68.6,53.2,68.0,62.0,49.0,92,80,63,30.84,30.64,10,4,0,0.00
2013-4-24,65.9,54.3,44.4,49.0,44.9,41.0,91,72,49,31.06,30.85,13,4,0,0.00
2013-4-25,74.7,63.2,50.1,50.0,47.1,44.0,86,58,37,31.14,30.98,10,2,0,0.00
2013-4-26,85.3,73.2,65.6,70.0,63.8,47.0,92,73,47,31.00,30.82,14,5,0,0.00
2013-4-27,80.8,71.2,64.1,72.0,66.8,62.0,94,86,68,30.89,30.73,10,3,0,0.00
2013-4-28,82.6,71.1,60.7,67.0,63.2,59.0,94,78,53,30.85,30.65,14,2,0,0.25
2013-4-29,82.0,68.9,60.8,68.0,64.0,59.0,94,85,58,30.73,30.59,11,2,0,0.01
2013-4-30,84.9,71.7,61.3,69.0,64.6,59.0,95,80,52,30.63,30.49,9,2,0,0.05
2013-5-1,85.3,73.8,63.4,70.0,66.4,61.0,94,79,54,30.69,30.57,11,1,0,0.00
2013-5-2,72.1,61.1,46.8,66.0,55.2,40.0,92,81,69,31.07,30.68,15,4,0,0.00
2013-5-3,66.2,53.1,42.9,40.0,35.1,30.0,78,55,26,31.08,30.89,16,5,0,0.00
2013-5-4,82.3,61.0,39.2,46.0,38.4,34.0,80,49,20,30.91,30.66,14,3,0,0.00
2013-5-5,71.1,57.9,41.2,47.0,43.1,36.0,86,60,40,30.94,30.78,9,2,0,0.00
2013-5-6,76.7,61.5,43.5,56.0,49.1,40.0,91,66,44,30.94,30.78,3,0,0,0.00
2013-5-7,85.4,68.7,50.0,58.0,54.5,47.0,93,64,36,30.88,30.74,9,2,0,0.00
2013-5-8,86.3,72.7,60.9,66.0,61.5,57.0,92,70,43,30.83,30.70,13,4,0,0.00
2013-5-9,80.0,72.2,67.0,71.0,67.8,63.0,94,86,74,30.76,30.59,12,3,0,0.20
2013-5-10,81.4,72.4,64.4,70.0,66.9,62.0,94,84,60,30.85,30.50,19,2,0,1.32
2013-5-11,81.5,70.9,60.5,69.0,61.8,54.0,94,75,45,30.90,30.72,9,2,0,0.04
2013-5-12,79.0,67.5,56.4,61.0,55.3,50.0,90,67,45,31.01,30.89,6,2,0,0.00
2013-5-13,82.2,68.4,49.9,61.0,54.7,47.0,91,64,42,31.08,30.95,10,2,0,0.00
2013-5-14,83.4,71.0,60.3,68.0,63.2,56.0,94,78,52,31.02,30.83,12,4,0,0.00
2013-5-15,79.1,70.9,66.4,72.0,67.3,64.0,94,88,77,30.91,30.66,14,5,0,0.12
2013-5-16,84.2,74.4,64.4,73.0,68.6,62.0,93,82,68,30.75,30.54,20,6,0,0.05
2013-5-17,88.9,78.7,71.0,77.0,72.1,68.0,92,81,66,30.70,30.59,15,6,0,0.00
2013-5-18,91.4,80.3,72.9,76.0,71.8,69.0,92,76,56,30.70,30.61,16,6,0,0.00
2013-5-19,90.3,79.9,72.6,74.0,71.3,70.0,91,76,56,30.65,30.52,15,7,0,0.00
2013-5-20,90.1,80.6,73.8,75.0,72.4,70.0,91,77,59,30.64,30.48,15,6,0,0.00
2013-5-21,89.6,80.3,68.4,74.0,72.1,65.0,91,77,60,30.62,30.43,16,6,0,0.67
2013-5-22,86.6,73.2,65.6,76.0,69.5,64.0,94,88,71,30.69,30.58,4,1,0,0.46
2013-5-23,88.8,80.2,73.2,77.0,73.6,71.0,93,81,65,30.80,30.65,12,3,0,0.00
2013-5-24,87.9,79.0,73.8,76.0,73.2,71.0,94,83,64,30.89,30.76,11,2,0,0.01
2013-5-25,82.3,76.9,72.3,74.0,71.7,70.0,93,84,72,30.91,30.80,11,2,0,0.00
2013-5-26,88.3,79.1,73.2,74.0,71.3,68.0,93,78,58,30.87,30.74,13,4,0,0.01
2013-5-27,89.0,78.7,71.0,74.0,70.9,69.0,94,78,58,30.80,30.63,11,5,0,0.00
2013-5-28,89.3,78.4,71.9,75.0,71.1,69.0,92,79,57,30.70,30.58,17,5,0,0.00
2013-5-29,86.2,78.8,73.9,75.0,72.3,71.0,90,81,66,30.66,30.53,16,5,0,0.00
2013-5-30,89.8,80.7,74.9,77.0,73.9,72.0,92,80,64,30.62,30.52,17,6,0,0.02
2013-5-31,91.8,82.8,76.8,77.0,74.6,73.0,92,77,58,30.64,30.52,16,7,0,0.00
2013-6-1,93.9,83.9,77.3,77.0,74.8,73.0,90,75,55,30.63,30.55,13,7,0,0.00
2013-6-2,82.5,74.7,68.0,74.0,69.5,64.0,94,84,62,30.80,30.62,8,2,0,0.71
2013-6-3,88.2,76.5,63.2,70.0,66.0,61.0,94,72,47,30.75,30.60,4,1,0,0.00
2013-6-4,90.0,79.4,67.7,74.0,70.4,65.0,93,75,55,30.69,30.55,7,1,0,0.00
2013-6-5,90.8,80.1,69.0,75.0,72.1,67.0,94,78,57,30.66,30.47,6,1,0,0.00
2013-6-6,92.4,79.8,71.2,77.0,72.5,68.0,94,79,54,30.67,30.49,10,2,0,0.00
2013-6-7,84.0,74.3,65.9,69.0,64.6,59.0,94,74,47,30.72,30.63,8,1,0,0.00
2013-6-8,90.4,77.5,61.8,72.0,66.2,58.0,91,69,49,30.71,30.57,11,2,0,0.00
2013-6-9,83.0,75.8,71.2,77.0,71.9,69.0,94,88,75,30.72,30.62,10,2,0,0.90
2013-6-10,91.6,79.7,67.9,77.0,72.5,66.0,95,80,56,30.76,30.67,8,2,0,0.00
2013-6-11,88.8,78.9,74.1,79.0,74.9,71.0,94,88,68,30.80,30.72,9,2,0,0.48
2013-6-12,92.1,82.2,74.2,79.0,75.6,72.0,95,81,61,30.83,30.71,9,3,0,0.00
2013-6-13,93.6,82.6,71.9,78.0,74.5,70.0,94,78,54,30.83,30.65,7,1,0,0.00
2013-6-14,93.6,83.5,74.6,78.0,75.1,73.0,94,77,55,30.73,30.62,6,1,0,0.00
2013-6-15,91.8,82.5,76.2,78.0,74.5,72.0,92,78,52,30.75,30.63,8,2,0,0.00
2013-6-16,93.8,83.6,73.1,77.0,73.8,71.0,94,74,51,30.79,30.64,9,3,0,0.00
2013-6-17,95.2,84.4,75.0,76.0,73.8,71.0,94,73,48,30.74,30.60,12,4,0,0.00
2013-6-18,90.0,82.1,75.8,78.0,73.9,71.0,93,77,56,30.73,30.62,10,3,0,0.05
2013-6-19,94.8,83.6,74.4,76.0,73.6,72.0,93,74,50,30.74,30.65,10,3,0,0.00
2013-6-20,95.3,84.3,75.1,77.0,73.6,70.0,93,72,46,30.82,30.71,11,4,0,0.00
2013-6-21,95.5,83.7,73.6,77.0,72.8,70.0,94,72,45,30.85,30.73,11,3,0,0.00
2013-6-22,96.4,84.5,74.4,77.0,72.7,69.0,94,70,43,30.81,30.67,13,4,0,0.00
2013-6-23,95.8,83.8,73.9,76.0,72.6,70.0,93,71,44,30.76,30.66,13,4,0,0.00
2013-6-24,96.4,85.2,74.7,76.0,72.0,69.0,92,67,43,30.80,30.67,12,5,0,0.00
2013-6-25,97.6,85.2,75.1,78.0,72.7,68.0,93,69,42,30.78,30.64,14,6,0,0.00
2013-6-26,98.8,85.7,75.2,76.0,73.2,70.0,93,69,41,30.75,30.62,13,5,0,0.01
2013-6-27,99.4,85.0,74.5,76.0,71.5,63.0,93,68,31,30.79,30.63,9,3,0,0.00
2013-6-28,101.9,87.4,75.4,75.0,71.1,63.0,92,63,28,30.73,30.53,9,2,0,0.00
2013-6-29,104.3,88.9,72.3,74.0,68.6,61.0,87,55,30,30.59,30.45,9,2,0,0.00
2013-6-30,96.9,85.9,71.0,68.0,62.8,58.0,74,47,32,30.64,30.52,8,1,0,0.00
2013-7-1,86.7,78.0,63.2,63.0,60.4,57.0,80,56,44,30.72,30.61,9,1,0,0.00
2013-7-2,93.1,78.2,62.8,65.0,58.8,54.0,85,56,30,30.80,30.69,5,1,0,0.00
2013-7-3,95.8,82.6,69.6,68.0,62.4,56.0,79,54,27,30.77,30.63,10,2,0,0.00
2013-7-4,93.0,81.0,69.4,70.0,66.3,63.0,86,63,40,30.75,30.64,5,1,0,0.00
2013-7-5,96.9,83.0,66.3,72.0,65.5,62.0,91,59,34,30.75,30.60,8,1,0,0.00
2013-7-6,96.0,81.9,71.3,76.0,70.5,66.0,91,71,38,30.69,30.57,7,2,0,0.00
2013-7-7,95.6,83.7,74.8,76.0,72.9,70.0,92,72,48,30.74,30.65,11,3,0,0.00
2013-7-8,89.7,79.9,72.6,75.0,73.0,71.0,94,80,55,30.90,30.74,11,3,0,0.81
2013-7-9,97.3,84.7,73.8,78.0,74.4,71.0,94,73,44,30.91,30.76,14,3,0,0.00
2013-7-10,97.8,85.2,74.6,77.0,73.8,71.0,93,71,43,30.85,30.66,12,3,0,0.00
2013-7-11,98.4,85.4,74.7,76.0,71.6,66.0,93,67,35,30.76,30.62,13,3,0,0.00
2013-7-12,98.7,85.0,75.1,76.0,72.3,70.0,92,69,40,30.72,30.59,9,2,0,0.00
2013-7-13,101.6,87.1,73.3,75.0,70.2,63.0,92,61,30,30.73,30.56,5,1,0,0.00
2013-7-14,87.9,80.8,74.3,74.0,71.3,67.0,87,73,57,30.69,30.61,10,2,0,0.00
2013-7-15,87.3,75.1,71.0,75.0,70.7,67.0,93,86,67,30.82,30.67,6,2,0,0.16
2013-7-16,93.1,79.2,73.6,75.0,72.3,71.0,93,81,51,30.88,30.78,17,3,0,0.09
2013-7-17,85.3,77.9,73.5,76.0,72.8,71.0,94,85,65,30.95,30.87,11,2,0,0.01
2013-7-18,95.6,83.4,71.4,76.0,70.8,68.0,94,69,43,30.92,30.73,10,1,0,0.00
2013-7-19,91.1,79.4,71.5,75.0,71.3,68.0,92,77,52,30.82,30.69,6,1,0,0.00
2013-7-20,90.3,78.9,74.2,75.0,72.4,71.0,91,81,54,30.75,30.64,9,2,0,0.00
2013-7-21,91.7,79.9,72.5,79.0,74.6,70.0,94,84,62,30.72,30.65,24,3,0,0.01
2013-7-22,97.6,85.8,78.1,78.0,75.7,73.0,93,74,48,30.76,30.65,15,7,0,0.00
2013-7-23,97.7,85.2,78.4,77.0,74.2,69.0,92,72,45,30.77,30.61,12,6,0,0.00
2013-7-24,96.6,84.2,74.9,76.0,73.7,71.0,94,73,43,30.76,30.61,8,2,0,0.00
2013-7-25,99.6,86.0,75.1,76.0,72.2,67.0,93,66,39,30.77,30.69,10,2,0,0.00
2013-7-26,96.7,85.6,77.5,77.0,74.3,71.0,93,71,44,30.79,30.61,14,6,0,0.00
2013-7-27,88.3,82.2,78.8,76.0,74.1,71.0,88,77,62,30.70,30.61,11,2,0,0.00
2013-7-28,96.1,83.0,75.4,77.0,73.0,71.0,86,73,52,30.72,30.61,9,3,0,0.00
2013-7-29,99.7,86.0,77.0,78.0,71.7,63.0,92,67,30,30.82,30.71,19,6,0,0.00
2013-7-30,100.9,86.3,75.9,76.0,71.0,61.0,92,65,29,30.87,30.73,16,6,0,0.00
2013-7-31,100.9,85.4,73.5,75.0,71.8,67.0,94,68,33,30.86,30.66,10,4,0,0.00
2013-8-1,101.4,88.3,76.5,76.0,73.4,71.0,92,64,41,30.78,30.62,7,3,0,0.00
2013-8-2,100.7,87.1,74.9,76.0,72.4,69.0,92,64,37,30.73,30.62,13,4,0,0.00
2013-8-3,100.1,86.3,74.5,76.0,73.0,69.0,94,68,38,30.78,30.67,12,3,0,0.00
2013-8-4,101.3,87.2,76.5,78.0,74.7,71.0,93,69,39,30.83,30.67,12,3,0,0.00
2013-8-5,101.6,86.5,75.7,77.0,73.3,67.0,93,68,33,30.79,30.62,18,5,0,0.00
2013-8-6,102.3,87.3,76.1,76.0,73.4,69.0,93,67,37,30.71,30.58,15,6,0,0.00
2013-8-7,102.7,88.5,78.7,76.0,72.8,66.0,90,64,31,30.69,30.54,14,7,0,0.00
2013-8-8,102.9,87.1,76.3,76.0,72.3,63.0,93,66,28,30.67,30.53,13,5,0,0.00
2013-8-9,101.6,86.4,73.4,76.0,72.1,70.0,94,66,36,30.71,30.59,9,2,0,0.00
2013-8-10,99.5,85.9,76.1,78.0,74.1,70.0,91,70,43,30.78,30.66,11,2,0,0.00
2013-8-11,96.7,82.8,73.9,77.0,73.1,70.0,92,74,43,30.82,30.71,6,1,0,0.00
2013-8-12,98.9,85.2,73.7,76.0,73.1,70.0,93,70,40,30.83,30.68,13,3,0,0.00
2013-8-13,101.8,88.2,77.9,77.0,72.2,63.0,92,63,28,30.78,30.61,11,3,0,0.00
2013-8-14,97.3,81.8,74.5,76.0,74.0,71.0,91,79,48,30.74,30.61,8,2,0,1.08
2013-8-15,89.0,79.4,74.3,77.0,73.8,72.0,93,83,63,30.78,30.68,5,1,0,0.15
2013-8-16,94.8,81.4,73.6,74.0,72.2,70.0,91,75,49,30.77,30.63,6,1,0,0.02
2013-8-17,92.1,80.1,68.9,70.0,64.5,60.0,90,62,34,30.80,30.67,8,1,0,0.00
2013-8-18,94.9,80.8,65.0,70.0,63.0,60.0,87,58,33,30.80,30.70,5,1,0,0.00
2013-8-19,93.7,81.4,68.5,73.0,66.3,63.0,90,63,38,30.82,30.67,6,1,0,0.00
2013-8-20,93.6,81.2,69.9,74.0,68.3,64.0,89,67,38,30.78,30.70,11,2,0,0.00
2013-8-21,95.2,82.3,70.4,76.0,70.0,66.0,89,68,42,30.85,30.72,11,1,0,0.00
2013-8-22,98.1,84.0,73.9,77.0,72.5,69.0,90,71,40,30.83,30.65,6,1,0,0.09
2013-8-23,97.4,85.2,73.7,76.0,72.2,69.0,90,67,41,30.78,30.62,7,1,0,0.00
2013-8-24,96.7,85.7,74.7,76.0,71.4,68.0,87,64,40,30.79,30.66,9,2,0,0.00
2013-8-25,92.7,82.8,74.6,75.0,71.5,69.0,84,70,47,30.84,30.76,15,3,0,0.00
2013-8-26,86.4,78.3,73.7,74.0,71.5,70.0,88,80,65,30.88,30.82,7,2,0,0.14
2013-8-27,91.2,79.4,72.2,75.0,70.9,69.0,88,76,53,30.90,30.79,7,2,0,0.01
2013-8-28,95.6,82.6,71.3,75.0,70.2,66.0,86,68,44,30.86,30.73,5,1,0,0.00
2013-8-29,99.6,85.9,74.2,75.0,70.0,66.0,84,62,33,30.83,30.66,7,1,0,0.00
2013-8-30,101.3,86.7,75.0,75.0,71.3,68.0,84,63,36,30.76,30.59,10,3,0,0.00
2013-8-31,99.3,85.9,75.2,75.0,71.9,70.0,84,65,41,30.69,30.55,9,3,0,0.00
2013-9-1,99.4,85.5,74.3,75.0,70.5,66.0,83,63,35,30.68,30.54,11,3,0,0.00
2013-9-2,100.4,86.6,74.8,76.0,70.6,66.0,83,62,34,30.73,30.55,11,2,0,0.00
2013-9-3,100.0,85.2,78.3,74.0,71.2,68.0,77,64,37,30.73,30.60,7,2,0,0.00
2013-9-4,96.4,83.7,75.6,76.0,71.9,69.0,82,69,46,30.79,30.67,10,1,0,0.00
2013-9-5,97.5,82.4,72.6,75.0,70.3,66.0,81,69,42,30.85,30.72,9,1,0,0.03
2013-9-6,97.3,83.2,72.3,75.0,70.7,66.0,81,68,41,30.84,30.70,7,1,0,0.00
2013-9-7,91.5,78.6,72.2,75.0,69.2,65.0,80,73,55,30.79,30.69,6,1,0,0.03
2013-9-8,93.1,80.2,71.9,74.0,69.4,65.0,79,70,51,30.75,30.63,9,2,0,0.02
2013-9-9,93.7,79.5,71.4,73.0,68.2,64.0,77,69,48,30.76,30.67,11,2,0,0.00
2013-9-10,93.5,80.7,73.0,73.0,68.8,64.0,75,68,38,30.83,30.74,11,2,0,0.00
2013-9-11,95.9,83.1,73.4,74.0,68.1,65.0,75,62,39,30.86,30.73,8,2,0,0.00
2013-9-12,95.5,82.7,70.7,74.0,66.8,62.0,74,61,36,30.81,30.64,9,1,0,0.00
2013-9-13,98.3,83.0,68.4,71.0,65.5,60.0,74,58,36,30.71,30.54,7,1,0,0.00
2013-9-14,95.6,84.0,73.7,72.0,69.1,65.0,74,62,44,30.68,30.57,9,2,0,0.00
2013-9-15,95.1,83.2,74.4,74.0,69.7,65.0,74,65,44,30.76,30.66,9,2,0,0.00
2013-9-16,94.3,82.7,74.7,74.0,70.1,66.0,74,67,45,30.81,30.69,11,2,0,0.00
2013-9-17,97.0,83.9,73.4,75.0,68.7,64.0,74,62,40,30.81,30.67,11,2,0,0.00
2013-9-18,97.6,83.4,71.9,75.0,68.9,63.0,74,63,40,30.76,30.62,10,2,0,0.00
2013-9-19,92.0,81.2,76.2,75.0,70.4,67.0,74,70,57,30.71,30.59,10,2,0,0.11
2013-9-20,81.1,77.6,73.1,70.0,66.9,62.0,72,70,68,30.64,30.50,12,2,0,2.31
2013-9-21,81.7,74.5,70.4,68.0,62.8,59.0,70,67,61,30.65,30.55,11,3,0,0.14
2013-9-22,84.5,73.2,59.5,60.0,55.8,50.0,71,56,35,30.66,30.52,9,2,0,0.00
2013-9-23,88.1,76.9,67.9,70.0,63.0,56.0,71,62,55,30.60,30.50,7,1,0,0.00
2013-9-24,92.9,79.7,69.6,72.0,63.9,59.0,72,60,37,30.64,30.54,10,1,0,0.00
2013-9-25,94.2,77.7,63.4,67.0,59.8,53.0,71,57,29,30.65,30.53,8,1,0,0.00
2013-9-26,92.4,79.1,69.2,71.0,63.5,58.0,72,60,37,30.68,30.58,9,2,0,0.00
2013-9-27,88.4,79.5,71.1,76.0,68.7,61.0,72,69,64,30.70,30.61,10,2,0,0.00
2013-9-28,87.9,80.5,76.1,76.0,68.7,64.0,70,67,62,30.73,30.62,8,2,0,0.21
2013-9-29,79.8,76.0,72.1,68.0,62.4,58.0,68,63,61,30.77,30.66,9,1,0,3.60
2013-9-30,87.5,77.9,72.0,72.0,63.9,58.0,67,62,57,30.70,30.56,8,0,0,0.00
2013-10-1,88.1,79.6,75.3,74.0,65.1,59.0,67,61,56,30.70,30.60,9,1,0,0.01
2013-10-2,81.8,77.1,74.3,68.0,60.5,57.0,63,57,53,30.74,30.65,10,1,0,0.31
2013-10-3,89.4,80.1,73.6,74.0,63.6,54.0,65,57,50,30.72,30.60,9,1,0,0.00
2013-10-4,89.3,79.9,73.2,73.0,63.1,54.0,65,57,50,30.70,30.61,11,2,0,0.00
2013-10-5,90.4,77.7,62.8,72.0,60.6,52.0,69,56,47,30.77,30.61,9,2,0,0.00
2013-10-6,78.5,64.6,52.0,54.0,47.4,40.0,71,56,26,30.90,30.77,9,3,0,0.00
2013-10-7,79.7,61.9,47.2,55.0,43.4,33.0,70,54,27,30.96,30.84,7,1,0,0.00
2013-10-8,82.3,64.6,48.6,58.0,47.1,34.0,70,55,34,30.91,30.78,4,0,0,0.00
2013-10-9,82.9,70.4,60.1,62.0,55.8,46.0,70,61,45,30.87,30.75,8,2,0,0.00
2013-10-10,85.7,73.5,62.3,67.0,58.2,47.0,70,59,49,30.84,30.68,10,2,0,0.00
2013-10-11,87.7,77.4,69.3,74.0,63.1,52.0,68,62,55,30.73,30.61,14,3,0,0.00
2013-10-12,88.2,78.5,72.7,75.0,59.4,52.0,65,52,45,30.81,30.67,9,2,0,0.19
2013-10-13,75.7,73.0,70.1,53.0,50.9,48.0,48,46,44,30.94,30.79,9,0,0,2.75
2013-10-14,81.2,76.0,72.4,67.0,55.4,49.0,62,49,42,30.88,30.71,6,1,0,0.00
2013-10-15,85.7,77.8,72.2,71.0,57.1,48.0,63,50,41,30.76,30.63,12,2,0,0.00
2013-10-16,73.8,62.9,60.4,49.0,39.7,37.0,44,43,41,30.84,30.69,7,1,0,0.19
2013-10-17,72.7,62.7,55.9,56.0,44.9,34.0,66,53,43,30.91,30.78,7,0,0,0.00
2013-10-18,70.4,64.1,56.9,58.0,50.6,37.0,67,62,47,30.82,30.69,7,1,0,0.00
2013-10-19,66.0,58.9,47.0,49.0,41.4,31.0,69,53,43,30.97,30.77,10,2,0,0.02
2013-10-20,73.8,58.3,44.4,55.0,42.1,26.0,68,55,43,30.93,30.75,13,2,0,0.00
2013-10-21,80.0,69.3,59.3,65.0,50.5,37.0,65,52,41,30.80,30.69,9,2,0,0.07
2013-10-22,73.3,63.5,52.3,56.0,43.9,34.0,68,50,40,30.91,30.79,11,3,0,0.00
2013-10-23,81.1,63.0,49.1,58.0,43.5,29.0,68,50,36,30.97,30.88,5,1,0,0.00
2013-10-24,82.7,65.1,51.6,60.0,46.7,33.0,68,52,35,31.04,30.92,3,0,0,0.00
2013-10-25,74.4,63.8,54.9,59.0,49.2,34.0,68,60,45,31.16,31.03,10,2,0,0.00
2013-10-26,79.6,66.9,54.9,66.0,55.0,45.0,70,66,55,31.06,30.88,11,4,0,0.00
2013-10-27,71.9,66.9,62.0,57.0,46.7,38.0,61,49,40,30.90,30.81,6,1,0,0.76
2013-10-28,82.0,72.0,63.0,69.0,52.9,39.0,65,52,41,30.90,30.79,8,2,0,0.00
2013-10-29,83.2,75.1,69.7,70.0,54.9,44.0,65,50,39,30.88,30.78,13,3,0,0.00
2013-10-30,83.0,76.2,71.7,59.0,48.0,43.0,45,37,32,30.84,30.59,16,3,0,2.51
2013-10-31,80.6,70.6,54.9,66.0,44.1,31.0,66,40,33,30.68,30.49,8,0,0,0.80
2013-11-1,77.7,65.1,52.8,61.0,48.8,28.0,66,56,39,30.80,30.61,11,2,0,0.00
2013-11-2,70.1,59.6,47.1,50.0,43.0,28.0,68,56,36,31.05,30.80,10,2,0,0.00
2013-11-3,69.2,56.4,43.5,52.0,41.8,24.0,69,59,45,31.05,30.89,10,2,0,0.00
2013-11-4,69.8,63.5,55.2,55.0,43.2,36.0,69,50,32,30.90,30.81,9,2,0,0.15
2013-11-5,73.8,70.2,66.5,43.0,37.8,35.0,33,31,28,30.84,30.75,5,0,0,0.27
2013-11-6,72.2,64.3,50.6,45.0,36.2,30.0,54,37,26,31.10,30.76,11,2,0,0.07
2013-11-7,65.2,53.1,42.9,44.0,37.4,25.0,68,56,41,31.25,31.10,11,3,0,0.00
2013-11-8,64.6,55.5,49.2,48.0,39.1,29.0,67,55,45,31.21,31.01,8,1,0,0.00
2013-11-9,65.8,58.7,54.2,54.0,44.9,34.0,67,61,42,31.03,30.96,5,2,0,0.00
2013-11-10,71.3,60.2,52.9,55.0,43.6,31.0,67,55,42,31.13,31.01,6,1,0,0.00
2013-11-11,71.8,59.1,48.6,57.0,40.1,21.0,66,50,31,31.09,30.97,5,0,0,0.00
2013-11-12,61.8,52.7,44.0,44.0,33.3,21.0,68,49,32,31.44,31.06,13,3,0,0.00
2013-11-13,53.1,41.9,33.6,34.0,27.8,22.0,70,59,39,31.50,31.28,9,2,0,0.00
2013-11-14,59.0,48.7,32.9,48.0,37.2,15.0,71,65,45,31.27,30.91,6,2,0,0.00
2013-11-15,75.4,64.1,52.6,63.0,45.6,28.0,67,53,28,30.91,30.69,10,2,0,0.00
2013-11-16,79.9,71.9,62.5,58.0,38.9,28.0,48,30,24,30.74,30.55,15,5,0,0.01
2013-11-17,85.8,77.1,70.1,71.0,46.6,32.0,62,36,24,30.71,30.57,16,5,0,0.00
2013-11-18,77.3,70.0,60.6,62.0,40.8,25.0,65,39,19,30.92,30.70,6,2,0,0.00
2013-11-19,68.7,60.5,53.8,48.0,44.3,42.0,67,56,42,30.96,30.83,11,3,0,0.00
2013-11-20,69.0,62.2,51.4,56.0,43.9,31.0,67,54,26,30.85,30.73,11,3,0,0.00
2013-11-21,80.1,73.4,67.7,53.0,31.6,26.0,41,22,17,30.85,30.74,10,2,0,0.03
2013-11-22,73.8,51.2,40.2,29.0,17.4,11.0,36,27,17,31.18,30.84,16,6,0,0.04
2013-11-23,46.7,43.6,40.1,30.0,15.3,9.0,54,33,26,31.29,31.16,16,6,0,0.00
2013-11-24,45.0,41.4,38.0,34.0,27.3,15.0,68,59,38,31.31,31.18,12,5,0,0.00
2013-11-25,41.4,40.1,39.0,16.0,10.2,8.0,38,29,28,31.18,30.91,11,3,0,0.01
2013-11-26,43.6,39.7,36.8,24.0,12.7,8.0,51,34,29,31.16,30.92,12,3,0,0.00
2013-11-27,47.5,37.7,30.0,29.0,22.3,11.0,69,55,41,31.34,31.17,9,2,0,0.00
2013-11-28,56.8,41.6,29.1,43.0,26.1,7.0,69,55,34,31.35,31.23,8,1,0,0.00
2013-11-29,62.4,48.3,38.2,45.0,34.3,19.0,70,59,44,31.37,31.22,5,2,0,0.00
2013-11-30,68.5,54.7,39.2,55.0,39.3,16.0,67,57,31,31.25,31.04,10,2,0,0.00
2013-12-1,69.8,62.7,54.9,57.0,38.8,20.0,65,43,24,31.05,30.75,14,4,0,0.00
2013-12-2,76.8,65.6,58.0,60.0,36.6,17.0,67,38,19,30.75,30.45,10,3,0,0.00
2013-12-3,74.8,65.8,58.2,61.0,32.1,14.0,62,32,16,30.50,30.39,14,6,0,0.08
2013-12-4,77.9,71.1,66.7,61.0,35.0,19.0,57,29,15,30.59,30.48,17,8,0,0.00
2013-12-5,72.7,50.3,35.7,36.0,24.7,14.0,63,42,15,30.91,30.57,15,6,0,0.00
2013-12-6,39.0,35.5,31.1,23.0,13.3,6.0,59,41,29,31.29,30.86,13,6,0,0.08
2013-12-7,33.6,32.1,30.4,20.0,14.3,6.0,63,49,32,31.31,31.18,15,4,0,0.01
2013-12-8,42.8,38.0,32.2,21.0,9.3,4.0,43,31,25,31.17,30.94,7,1,0,0.01
2013-12-9,43.4,41.0,35.7,10.0,6.8,4.0,34,24,22,31.22,30.94,12,4,0,0.04
2013-12-10,43.7,34.8,29.1,30.0,21.1,11.0,72,58,37,31.36,31.21,12,3,0,0.00
2013-12-11,50.5,40.4,29.1,39.0,24.9,6.0,71,55,36,31.41,31.23,7,1,0,0.00
2013-12-12,51.8,41.0,31.3,36.0,26.4,8.0,72,57,33,31.45,31.23,5,1,0,0.00
2013-12-13,53.0,48.1,42.7,42.0,27.5,10.0,72,51,21,31.22,30.69,6,1,0,0.12
2013-12-14,53.8,46.5,35.6,38.0,20.7,6.0,69,41,16,31.15,30.70,14,4,0,0.01
2013-12-15,55.3,39.7,27.5,37.0,23.0,5.0,71,52,34,31.27,31.14,5,1,0,0.00
2013-12-16,62.9,45.8,30.8,43.0,28.3,6.0,71,52,31,31.20,31.07,12,2,0,0.00
2013-12-17,70.4,49.6,34.0,47.0,34.0,8.0,71,57,26,31.19,31.07,6,1,0,0.00
2013-12-18,68.5,54.3,37.3,53.0,35.7,9.0,68,51,21,31.16,30.93,11,3,0,0.00
2013-12-19,76.0,65.4,55.1,64.0,38.4,23.0,68,40,18,30.92,30.65,22,7,0,0.01
2013-12-20,76.2,72.3,68.5,56.0,33.4,18.0,51,26,14,30.68,30.47,15,8,0,0.00
2013-12-21,74.2,62.1,47.4,41.0,18.0,1.0,39,19,8,30.65,30.34,27,6,0,1.03
2013-12-22,51.1,46.6,34.8,40.0,18.2,-2.0,69,40,11,31.21,30.62,13,3,0,0.00
2013-12-23,50.0,38.2,31.1,35.0,23.9,10.0,70,57,39,31.42,31.21,11,3,0,0.00
2013-12-24,58.1,41.4,28.4,37.0,23.7,3.0,70,51,29,31.44,31.19,9,2,0,0.00
2013-12-25,54.3,47.4,36.9,44.0,25.6,4.0,69,48,15,31.23,31.14,12,2,0,0.08
2013-12-26,57.2,48.3,40.9,46.0,19.2,1.0,67,36,15,31.28,31.15,5,1,0,0.01
2013-12-27,57.3,48.7,42.8,44.0,29.6,11.0,68,50,27,31.29,31.18,6,1,0,0.00
2013-12-28,58.0,46.8,40.3,40.0,28.0,11.0,70,50,28,31.18,30.88,4,0,0,0.00
2013-12-29,62.9,49.4,36.9,49.0,37.9,19.0,70,65,43,31.07,30.82,12,2,0,0.00
2013-12-30,42.0,38.0,35.2,33.0,29.1,26.0,80,70,66,31.29,31.06,11,4,0,0.00
2013-12-31,46.7,40.5,36.3,36.0,29.9,14.0,72,66,34,31.35,31.14,4,1,0,0.00
2014-1-1,62.7,52.2,41.1,51.0,31.1,8.0,67,46,23,31.14,30.86,11,3,0,0.00
2014-1-2,55.5,40.8,29.1,42.0,27.1,14.0,72,60,19,31.33,30.90,17,5,0,0.00